Regional Weather Roundup
Issued by NWS Charleston, SC

Current Version | Previous Version | Graphics & Text | Print | Product List | Glossary On
Versions: 1 2 3 4 5 6 7 8 9 10 11 12 13 14 15 16 17 18 19 20 21 22 23 24 25 26 27 28 29 30 31 32 33 34 35 36 37 38 39 40 41 42 43 44 45 46 47 48 49 50
000 ASUS42 KCHS 261613 RWRCHS REGIONAL WEATHER ROUNDUP NATIONAL WEATHER SERVICE CHARLESTON SC 1200 PM EDT MON SEP 26 2016 NOTE: "FAIR" INDICATES FEW OR NO CLOUDS BELOW 12,000 FEET WITH NO SIGNIFICANT WEATHER AND/OR OBSTRUCTIONS TO VISIBILITY. NOT ALL STATIONS ARE QUALITY CONTROLLED. USE DATA WITH CAUTION... ESPECIALLY DEWPOINT OBSERVATIONS. SCZ027-030-031-034>040-042>050-261700- ...SOUTHEAST SOUTH CAROLINA... CITY SKY/WX TMP DP RH WIND PRES REMARKS N CHARLESTON CLOUDY 82 72 71 E7 30.08S WATERFRONT PRK N/A 80 75 84 E6 30.06S MOUNT PLEASANT FAIR 79 73 83 N7 30.09S JOHNS ISLAND LGT RAIN 79 73 83 SE7G15 30.09R PINOPOLIS N/A 81 73 78 E5 30.03S MONCKS CORNER FAIR 79 72 78 E5 30.09S SUMMERVILLE NOT AVBL BEAUFORT MCAS CLOUDY 82 74 76 E8 30.08S BEAUFORT ARPT PTSUNNY 79 73 83 E3 30.07S HILTON HEAD IS PTSUNNY 79 75 89 E5 30.09R WALTERBORO CLOUDY 82 77 83 E8 30.10S HX 91 ALLENDALE FAIR 82 73 74 E7 30.08F ...SOUTHERN MIDLANDS AND PEE DEE... CITY SKY/WX TMP DP RH WIND PRES REMARKS GEORGETOWN CLOUDY 81 72 74 NE12G17 30.10F KINGSTREE FAIR 82 68 61 E3 30.10F ORANGEBURG PTSUNNY 80 72 76 VRB3 30.10F BARNWELL NOT AVBL AIKEN PTSUNNY 79 70 73 SE8 30.14F MANNING PTSUNNY 79 70 73 NE5 30.11S COLUMBIA CLOUDY 79 70 74 SE3 30.11F SUMTER PTSUNNY 80 69 70 SE3 30.09F FLORENCE SUNNY 79 69 71 SE6 30.12S MYRTLE BEACH MOSUNNY N/A N/A N/A E12G17 30.12F N MYRTLE BEACH SUNNY 81 71 71 E10 30.10F $$ GAZ063-065-086>088-099>101-113>116-118-119-134>141-150-261700- ...SOUTHEAST GEORGIA... CITY SKY/WX TMP DP RH WIND PRES REMARKS SAVANNAH ARPT LGT RAIN 74 70 87 CALM 30.08S HUNTER AAF PTSUNNY 80 77 91 E8 30.05S FORT STEWART CLOUDY 82 72 72 E8 30.04F STATESBORO MOSUNNY 83 75 74 E5 30.08S HX 91 SYLVANIA NOT AVBL CLAXTON FAIR 83 74 74 NE8 30.07F HX 90 ...CSRA...CENTRAL AND FAR SOUTHEAST GEORGIA... CITY SKY/WX TMP DP RH WIND PRES REMARKS THOMSON PTSUNNY 82 74 76 CALM 30.13F AUGUSTA-BUSH PTSUNNY 83 72 69 E8 30.08F AUGUSTA-DANIEL PTSUNNY 84 69 60 VRB6 30.09F SWAINSBORO PTSUNNY 82 72 69 NE3 30.09S VIDALIA CLOUDY 82 77 83 E7 30.07F HX 91 EASTMAN FAIR 86 61 42 E5 30.09F HAZLEHURST PTSUNNY 83 77 80 SW3 30.05F HX 92 ALMA PTSUNNY 84 74 71 NE6 30.05F HX 91 WAYCROSS PTSUNNY 85 78 79 E8 30.05S HX 96 JESUP FAIR 82 77 83 E8 30.06S HX 91 BAXLEY PTSUNNY 84 79 84 E3 30.05F HX 96 BRUNSWICK CLOUDY 84 72 65 NE17G24 30.05S SAINT SIMONS CLOUDY 81 71 71 E14G22 30.04S $$ SCZ027-028-034-036>038-045-046-048>050-GAZ119-141-261700- ...LAKE AND SUPPLEMENTAL COASTAL OBSERVATIONS... STATION/POSITION TIME TEMP WIND PRES WAVE SWELL AIR SEA DIR/SP/G HT/PER HT/PER/DIR (UTC) (F) (DEG/KT/KT) (MB) (FT/S) (FT/S/D) WINYAH BAY NOT AVBL LAKE MURRAY 1520 80 180/ 2/ 3 1019.6 ACE BASIN NERRS 1445 78 60/ 2 1019.0 FORT PULASKI 1542 79 81 70/ 10/ 11 1019.0R SAPELO ISLAND 1500 80 70/ 6 1018.0 $$ ANZ835-935-AMZ111-154-330-350-352-354-370-450-454-472-261700- ...C-MAN AND BUOY OBSERVATIONS... STATION/POSITION TIME TEMP WIND PRES WAVE SWELL AIR SEA DIR/SP/G HT/PER HT/PER/DIR (UTC) (F) (DEG/KT/KT) (MB) (FT/S) (FT/S/D) BUOY 41004 1550 77 82 120/ 8/ 8 1017.5F 4/ 6 3/ 70/ 6 BUOY 41008 1550 79 82 70/ 16/ 17 1017.3R 4/ 6 2/120/ 9 FOLLY BEACH CMAN 1500 80 80/ 10/ 11 1018.4F CAPERS NEARSHORE 1508 81 81 90/ 12/ 16 1018.3S FRIPP NEARSHORE 1508 79 81 100/ 12/ 17 1018.1S STATION/POSITION TIME TEMP WIND PRES WAVE SWELL AIR SEA DIR/SP/G HT/PER HT/PER/DIR (UTC) (F) (DEG/KT/KT) (MB) (FT/S) (FT/S/D) 5E ST. MARYS GA 1501 82 N/A 4/ 5 FRYING PAN BUOY 1550 80 82 60/ 14/ 17 1018.6F 4/ 4 2/130/ 9 BUOY 41025 1550 77 78 70/ 4/ 6 1019.9S 3/ 8 3/ 90/ 8 CAPE LOOKOUT NC 1600 75 60/ 10/ 12 1019.9F BUOY 41002 1550 80 84 80/ 17/ 21 1017.5S 6/ 6 3/ 40/ 8 BUOY 41010 NOT AVBL ST AUGUSTINE FL 1600 78 84 360/ 4/ 4 1016.7F $$

USA.gov is the U.S. government's official web portal to all federal, state and local government web resources and services.